CW0728 Weather Reports


time (UTC)temp
C
wind
direction
speed
KPH
gust
KPH
rain 1hr
cm
rain 24hr
cm
rain mn
cm
humidity
%
barometer
mb
20260902004529 17 99 0.0 0.0 0.00 0.00 0.00 89 1018.0
20260902003015 17 99 0.0 0.0 0.00 0.00 0.00 89 1017.8
20260902001540 17 94 0.0 0.0 0.00 0.00 0.00 88 1017.6
20260902000016 17 86 0.0 0.0 0.00 0.00 0.00 88 1017.5
20260901234552 17 98 0.0 0.0 0.00 0.00 0.00 87 1017.6
20260901233038 18 98 0.0 0.0 0.00 0.00 0.00 87 1017.5
20260901231514 18 94 0.0 0.0 0.00 0.00 0.00 86 1017.5
20260901230059 18 91 0.0 0.0 0.00 0.00 0.00 85 1017.3
20260901224532 18 100 0.0 0.0 0.00 0.00 0.00 85 1017.2
20260901223014 18 94 0.0 0.0 0.00 0.00 0.00 85 1017.1
20260901221542 19 188 0.0 0.0 0.00 0.00 0.00 84 1017.2
20260901220049 19 138 0.0 0.0 0.00 0.00 0.00 84 1017.2
20260901214559 19 225 0.0 0.0 0.00 0.00 0.00 82 1017.0
20260901213100 20 94 0.0 0.0 0.00 0.00 0.00 82 1016.9
20260901211512 20 149 0.0 0.0 0.00 0.00 0.00 82 1016.8
20260901210059 20 222 0.0 0.0 0.00 0.00 0.00 81 1016.7
20260901204536 20 166 0.0 0.0 0.00 0.00 0.00 79 1016.7
20260901203038 21 115 0.0 0.0 0.00 0.00 0.00 76 1016.5
20260901201550 21 93 0.0 0.0 0.00 0.00 0.00 76 1016.5
20260901200032 21 93 0.0 0.0 0.00 0.00 0.00 74 1016.5
20260901194602 22 86 0.0 0.0 0.00 0.00 0.00 72 1016.5
20260901193039 22 44 0.0 0.0 0.00 0.00 0.00 71 1016.6
20260901191518 22 92 0.0 0.0 0.00 0.00 0.00 71 1016.7
20260901190056 22 120 0.0 0.0 0.00 0.00 0.00 71 1016.8
20260901184532 22 95 0.0 0.0 0.00 0.00 0.00 68 1016.8
20260901183003 23 85 0.0 0.0 0.00 0.00 0.00 69 1016.6
20260901181540 23 104 0.0 0.0 0.00 0.00 0.00 67 1016.6
20260901180026 23 137 0.0 0.0 0.00 0.00 0.00 65 1016.4
20260901174512 23 82 0.0 1.6 0.00 0.00 0.00 65 1016.3
20260901173058 23 103 0.0 4.8 0.00 0.00 0.00 63 1016.4
20260901171526 22 102 0.0 0.0 0.00 0.00 0.00 68 1016.4
20260901170002 22 76 0.0 0.0 0.00 0.00 0.00 66 1016.3
20260901164538 22 84 0.0 0.0 0.00 0.00 0.00 65 1016.5
20260901163034 21 202 0.0 0.0 0.00 0.00 0.00 69 1016.6
20260901161510 21 102 0.0 0.0 0.00 0.00 0.00 69 1016.6
20260901160044 20 159 0.0 0.0 0.00 0.00 0.00 72 1016.6
20260901154520 20 196 0.0 0.0 0.00 0.00 0.00 70 1016.9
20260901153054 19 335 0.0 0.0 0.00 0.00 0.00 72 1016.8
20260901151537 18 111 0.0 0.0 0.00 0.00 0.00 72 1016.6
20260901150012 17 100 0.0 0.0 0.00 0.00 0.00 75 1016.5
20260901144548 17 97 0.0 0.0 0.00 0.00 0.00 76 1016.4
20260901143017 16 140 0.0 0.0 0.00 0.00 0.00 79 1016.4
20260901141552 15 70 0.0 0.0 0.00 0.00 0.00 78 1016.9
20260901140051 15 61 0.0 0.0 0.00 0.00 0.00 79 1016.9
20260901134512 15 104 0.0 0.0 0.00 0.00 0.00 79 1017.0
20260901133054 15 13 0.0 0.0 0.00 0.00 0.00 80 1017.0
20260901131527 15 63 0.0 0.0 0.00 0.00 0.00 80 1016.8
20260901130011 15 36 0.0 0.0 0.00 0.00 0.00 81 1017.1
20260901124544 15 320 0.0 0.0 0.00 0.00 0.00 83 1017.3
20260901123020 14 309 0.0 0.0 0.00 0.00 0.00 85 1017.0
20260901121550 14 309 0.0 0.0 0.00 0.00 0.00 86 1017.0
20260901120049 13 89 0.0 0.0 0.00 0.00 0.00 89 1016.8
20260901114559 13 331 0.0 0.0 0.00 0.00 0.00 91 1016.8
20260901113039 13 331 0.0 0.0 0.00 0.00 0.00 92 1016.7
20260901111510 12 342 0.0 0.0 0.00 0.00 0.00 92 1016.5
20260901110050 12 351 0.0 0.0 0.00 0.00 0.00 93 1016.3
20260901104522 12 297 0.0 0.0 0.00 0.00 0.00 93 1016.4
20260901103059 12 296 0.0 0.0 0.00 0.00 0.00 94 1016.0
20260901101536 12 69 0.0 0.0 0.00 0.00 0.00 94 1015.7
20260901100021 12 233 0.0 0.0 0.00 0.00 0.00 94 1015.8
20260901094556 11 229 0.0 0.0 0.00 0.00 0.00 94 1015.8
20260901093031 11 229 0.0 0.0 0.00 0.00 0.00 94 1015.7
20260901091504 11 229 0.0 0.0 0.00 0.00 0.00 93 1015.8
20260901090040 11 229 0.0 0.0 0.00 0.00 0.00 93 1016.1
20260901084525 11 226 0.0 0.0 0.00 0.00 0.00 93 1016.0
20260901083106 11 226 0.0 0.0 0.00 0.00 0.00 93 1016.0
20260901081537 11 226 0.0 0.0 0.00 0.00 0.00 93 1016.0
20260901080012 11 226 0.0 0.0 0.00 0.00 0.00 93 1016.0
20260901074549 11 226 0.0 0.0 0.00 0.00 0.00 93 1016.1
20260901073027 11 221 0.0 0.0 0.00 0.00 0.00 92 1016.3
20260901071602 11 221 0.0 0.0 0.00 0.00 0.00 92 1016.4
20260901070048 11 218 0.0 0.0 0.00 0.00 0.00 92 1016.3
20260901064533 12 218 0.0 0.0 0.00 0.00 0.00 92 1016.2
20260901063006 12 218 0.0 0.0 0.00 0.00 0.00 92 1016.2
20260901061542 12 218 0.0 0.0 0.00 0.00 0.00 92 1016.3
20260901060019 12 217 0.0 0.0 0.00 0.00 0.00 92 1016.5
20260901054555 12 217 0.0 0.0 0.00 0.00 0.00 92 1016.2
20260901053106 12 217 0.0 0.0 0.00 0.00 0.00 92 1016.3
20260901051532 12 217 0.0 0.0 0.00 0.00 0.00 91 1016.3
20260901050007 12 217 0.0 0.0 0.00 0.00 0.00 91 1016.3
20260901044554 12 217 0.0 0.0 0.00 0.00 0.00 91 1016.3
20260901043019 13 217 0.0 0.0 0.00 0.00 0.00 90 1016.4
20260901041556 13 217 0.0 0.0 0.00 0.00 0.00 90 1016.4
20260901040032 13 217 0.0 0.0 0.00 0.00 0.00 90 1016.5
20260901034523 13 217 0.0 0.0 0.00 0.00 0.00 90 1016.5
20260901033047 13 217 0.0 0.0 0.00 0.00 0.00 89 1016.5
20260901031533 13 217 0.0 0.0 0.00 0.00 0.00 89 1016.6
20260901030003 14 217 0.0 0.0 0.00 0.10 0.00 88 1016.6
20260901024550 14 217 0.0 0.0 0.00 0.10 0.00 87 1016.5
20260901023021 14 217 0.0 0.0 0.00 0.10 0.00 87 1016.4
20260901021555 15 217 0.0 0.0 0.00 0.10 0.00 87 1016.4
20260901020040 15 217 0.0 0.0 0.00 0.10 0.00 86 1016.5
20260901014509 15 219 0.0 0.0 0.00 0.10 0.00 84 1016.4
20260901013047 15 219 0.0 0.0 0.00 0.10 0.00 83 1016.4
20260901011526 16 219 0.0 0.0 0.00 0.10 0.00 82 1016.5